This is the latest recevied weather packets stored in our database for station/object HF3P-11. If no packets are shown the sender has not sent any weather packets the latest 10 day(s).
| Time | Temp. | Humidity | Pressure | Rain* | Wind** | Luminosity | Snow |
|---|---|---|---|---|---|---|---|
| 1777842599 | 17.78° C | 38% | 1004.4 hPa | 0 mm | - | - | - |
| 1777842293 | 18.33° C | 37% | 1004.5 hPa | 0 mm | - | - | - |
| 1777842000 | 17.22° C | 37% | 1004.6 hPa | 0 mm | - | - | - |
| 1777841699 | 18.33° C | 37% | 1004.4 hPa | 0 mm | - | - | - |
| 1777841392 | 18.33° C | 37% | 1004.6 hPa | 0 mm | - | - | - |
| 1777841099 | 18.33° C | 37% | 1004.6 hPa | 0 mm | - | - | - |
| 1777840792 | 18.89° C | 36% | 1004.6 hPa | 0 mm | - | - | - |
| 1777840499 | 18.89° C | 36% | 1004.6 hPa | 0 mm | - | - | - |
| 1777840192 | 18.89° C | 36% | 1004.6 hPa | 0 mm | - | - | - |
| 1777839899 | 18.89° C | 36% | 1004.5 hPa | 0 mm | - | - | - |
| 1777839595 | 18.89° C | 35% | 1004.6 hPa | 0 mm | - | - | - |
| 1777839295 | 19.44° C | 35% | 1004.7 hPa | 0 mm | - | - | - |
| 1777838999 | 19.44° C | 35% | 1004.5 hPa | 0 mm | - | - | - |
| 1777838692 | 19.44° C | 35% | 1004.6 hPa | 0 mm | - | - | - |
| 1777838399 | 19.44° C | 35% | 1004.6 hPa | 0 mm | - | - | - |
| 1777838092 | 19.44° C | 35% | 1004.7 hPa | 0 mm | - | - | - |
| 1777837799 | 19.44° C | 35% | 1004.6 hPa | 0 mm | - | - | - |
| 1777837492 | 19.44° C | 35% | 1004.6 hPa | 0 mm | - | - | - |
| 1777837193 | 19.44° C | 34% | 1004.7 hPa | 0 mm | - | - | - |
| 1777836899 | 19.44° C | 35% | 1004.7 hPa | 0 mm | - | - | - |
| 1777836592 | 19.44° C | 35% | 1004.7 hPa | 0 mm | - | - | - |
| 1777836300 | 19.44° C | 34% | 1004.7 hPa | 0 mm | - | - | - |
| 1777835992 | 20° C | 35% | 1004.8 hPa | 0 mm | - | - | - |
| 1777835700 | 20° C | 34% | 1004.7 hPa | 0 mm | - | - | - |
| 1777835392 | 20° C | 34% | 1004.6 hPa | 0 mm | - | - | - |
* Rain latest hour (hover to see other rain measurements)
** Current wind speed in m/s (hover to see current wind gust speed)